sat.trackr.live / text

‹ back to catalog

STARLINK-3238

NORAD 49734 · 2021-115L

PAYLOAD ACTIVE UNKNOWN

§ Identity

Operator
Country
US
Launch date
2021-12-02
Launch site
AFETR
Launch vehicle
Mass (kg)
RCS (m²)

Purposes: comms

External: N2YO · Heavens-Above · Gunter

§ Orbital elements

Epoch: 2026-05-25T01:01:18.447168Z

Period
95.44 min
Inclination
53.2130°
Eccentricity
0.0000940
Mean motion
15.08835006 rev/d
Perigee alt
539.1 km
Apogee alt
540.4 km
Semi-major
6,917.9 km
B*
6.5788e-5
RAAN
166.3850°
Arg perigee
66.3110°
Mean anomaly
293.7980°
Rev number
24,706

§ Raw data

STARLINK-32381 49734U 21115L   26145.04257462  .00000759  00000+0  65788-4 0  99932 49734  53.2130 166.3850 0000940  66.3110 293.7980 15.08835006247065

JSON: /api/v1/satellites/49734 · /tle

For live sub-satellite position, see the globe view (requires WebGL).

§ Visibility from observer

Set your observer location to see the next 7 days of passes ≥ 10°. The values pass through the URL so the page stays shareable.

No JS? Fill the form by hand. The geolocation button needs JavaScript.